This is the latest recevied weather packets stored in our database for station/object KD8JAM. If no packets are shown the sender has not sent any weather packets the latest 10 day(s).
| Time | Temp. | Humidity | Pressure | Rain* | Wind** | Luminosity | Snow |
|---|---|---|---|---|---|---|---|
| 1777400985 | 3.33° C | 98% | 1008.8 hPa | 0 mm | - | 232 W/m² | - |
| 1777400681 | 3.89° C | 98% | 1009.1 hPa | 0 mm | - | 166 W/m² | - |
| 1777400379 | 3.89° C | 97% | 1008.9 hPa | 0 mm | - | 199 W/m² | - |
| 1777400074 | 3.89° C | 97% | 1008.7 hPa | 0 mm | - | 265 W/m² | - |
| 1777399772 | 3.89° C | 98% | 1008.4 hPa | 0 mm | - | 268 W/m² | - |
| 1777399468 | 3.89° C | 98% | 1008.7 hPa | 0 mm | - | 239 W/m² | - |
| 1777399166 | 3.89° C | 97% | 1008.4 hPa | 0 mm | - | 255 W/m² | - |
| 1777398863 | 3.89° C | 98% | 1008.6 hPa | 0 mm | - | 290 W/m² | - |
| 1777398561 | 3.89° C | 98% | 1008.6 hPa | 0 mm | - | 309 W/m² | - |
| 1777398256 | 3.89° C | 98% | 1008.5 hPa | 0 mm | - | 303 W/m² | - |
| 1777397954 | 3.89° C | 98% | 1008.3 hPa | 0 mm | - | 273 W/m² | - |
| 1777397649 | 3.89° C | 98% | 1008.4 hPa | 0 mm | - | 286 W/m² | - |
| 1777397346 | 3.89° C | 98% | 1008.1 hPa | 0 mm | - | 339 W/m² | - |
| 1777397043 | 3.89° C | 99% | 1008 hPa | 0 mm | - | 333 W/m² | - |
| 1777396739 | 3.89° C | 99% | 1008 hPa | 0 mm | - | 320 W/m² | - |
| 1777396436 | 3.89° C | 98% | 1007.9 hPa | 0 mm | - | 306 W/m² | - |
| 1777396133 | 3.33° C | 99% | 1007.7 hPa | 0 mm | - | 370 W/m² | - |
| 1777395828 | 3.89° C | 98% | 1007.4 hPa | 0 mm | - | 354 W/m² | - |
| 1777395524 | 3.89° C | 98% | 1007.5 hPa | 0 mm | - | 383 W/m² | - |
| 1777395221 | 3.33° C | 99% | 1007.4 hPa | 0 mm | - | 398 W/m² | - |
| 1777394919 | 3.33° C | 99% | 1007 hPa | 0 mm | - | 278 W/m² | - |
| 1777394613 | 3.33° C | 99% | 1007.2 hPa | 0 mm | - | 232 W/m² | - |
| 1777394311 | 3.33° C | 99% | 1007.1 hPa | 0 mm | - | 263 W/m² | - |
| 1777394007 | 3.33° C | 99% | 1006.9 hPa | 0 mm | - | 206 W/m² | - |
| 1777393707 | 2.78° C | 99% | 1006.7 hPa | 0 mm | - | 233 W/m² | - |
* Rain latest hour (hover to see other rain measurements)
** Current wind speed in m/s (hover to see current wind gust speed)